Regional Weather Roundup
Issued by NWS

Home | Current Version | Previous Version | Graphics & Text | Print | Product List | Glossary On
Versions: 1 2 3 4 5 6 7 8 9 10 11 12 13 14 15 16 17 18 19 20 21 22 23 24 25 26 27 28 29 30 31 32 33 34 35 36 37 38 39 40 41 42 43 44 45 46 47 48 49 50
629
ASUS45 KTFX 241010
RWRMT
MONTANA REGIONAL WEATHER ROUNDUP
NATIONAL WEATHER SERVICE GREAT FALLS MT
300 AM MST FRI FEB 24 2017

NOTE: "FAIR" INDICATES FEW OR NO CLOUDS BELOW 12000 FEET WITH NO
SIGNIFICANT WEATHER AND/OR OBSTRUCTIONS TO VISIBILITY.

MTZ001>007-043-241100-
WEST OF THE DIVIDE

CITY           SKY/WX    TMP DP  RH WIND       PRES   REMARKS
KALISPELL      CLEAR     12  10  92 CALM      30.01R
MISSOULA       CLOUDY    28  19  69 NW10      30.00R WCI  19
BUTTE          LGT SNOW  18  14  84 CALM      29.86S FOG
MULLAN PASS    CLOUDY    14  12  92 CALM      29.88S
ANACONDA         N/A     19  12  73 SW3       29.90S
DEER LODGE       N/A     21  14  73 NW6       29.93S WCI  14
EUREKA           N/A     12  10  92 CALM      30.05R
HAMILTON         N/A     27  23  86 W6        29.95S WCI  20
LIBBY            N/A     12  10  92 CALM      30.04S
PLAINS           N/A     15   9  77 CALM      30.06R
RONAN            N/A     22  18  85 CALM      30.02S
$$

MTZ008-052>055-241100-
SOUTHWEST MONTANA

CITY           SKY/WX    TMP DP  RH WIND       PRES   REMARKS
BOZEMAN        CLOUDY    21  18  88 NW9       29.89F WCI  11
DILLON         CLOUDY    20  15  81 NE12      29.84S WCI   8
W YELLOWSTONE  CLOUDY    14  10  85 CALM      29.79S FOG
ENNIS          CLOUDY    18  16  93 N7        29.88F FOG     WCI   8
THREE FORKS      N/A     19 -14  22 W3        29.90S
TWIN BRIDGES     N/A     21  13  71 N9        29.87R WCI  11
$$

MTZ009-010-012-014-046-048-049-054-241100-
EAST SLOPES AND CENTRAL MONTANA

CITY           SKY/WX    TMP DP  RH WIND       PRES   REMARKS
CUT BANK       CLOUDY    17  16  95 SW9       29.95R FOG     WCI   6
GREAT FALLS    CLOUDY    23  20  88 CALM      29.95S
MALMSTROM AFB  FLURRIES  23  23 100 MISG      29.97S
HELENA         CLOUDY    27  23  85 CALM      29.93S
AUGUSTA        MOCLDY    17  17  97 W5        29.91S
BOWMANS CRNR   MOCLDY    20  19  94 CALM      29.90S
CHOTEAU          N/A     19  18  93 W5        29.96S
CONRAD           N/A     13  12  95 NE2       29.97S
POWER          MOCLDY    21  19  93 CALM      29.94S
RAYNESFORD     CLOUDY    19  15  84 E8        29.94F WCI   9
ULM            FLURRIES  23  23  99 MISG      29.95S
$$

MTZ011-013-016-021-045-047-050-051-241100-
NORTH CENTRAL MONTANA

CITY           SKY/WX    TMP DP  RH WIND       PRES   REMARKS
HAVRE          CLOUDY    19  18  95 CALM      30.02F
LEWISTOWN      CLOUDY    20  16  84 E6        29.93S WCI  12
N BAR RANCH    CLOUDY    21  19  93 E9        29.95F FOG     WCI  11
CHINOOK          N/A    N/A N/A N/A E8        30.04F
DENTON           N/A     19  18  95 N8        29.93F WCI   9
GEYSER           N/A     17  14  89 SW9       29.93S WCI   5
GRASS RANGE    LGT SNOW  24  23  96 E8        29.93F WCI  15
JUDITH GAP     FLURRIES  18  16  92 SW14      29.90F WCI   4
ROY            FLURRIES  25  24  99 MISG      29.97S
STANFORD       MOCLDY    16  13  86 S6        29.92S WCI   8
WINIFRED         N/A     16  15  95 E8        29.95F WCI   5
$$

MTZ017>020-022>027-061-062-241100-
NORTHEAST MONTANA

CITY           SKY/WX    TMP DP  RH WIND       PRES   REMARKS
GLASGOW        CLOUDY    23  18  81 SE10      30.08F WCI  12
JORDAN           N/A     24  22  91 E8        30.05S WCI  15
SIDNEY         CLOUDY    19  15  84 SE5       30.14F
WOLF POINT     CLOUDY    26  20  77 E5        30.12F
PLENTYWOOD       N/A     18  14  86 NE5       30.11F
SCOBEY           N/A     21  11  65 CALM      30.07F
$$

MTZ028>42-056>058-241100-
SOUTHCENTRAL AND SOUTHEAST MONTANA

CITY           SKY/WX    TMP DP  RH WIND       PRES   REMARKS
BAKER          CLOUDY    17  10  74 E12       30.05F WCI   4
BILLINGS       FLURRIES  25  24  96 NE7       29.94S WCI  17
LIVINGSTON     CLOUDY    20  16  84 E6        29.88F WCI  12
MILES CITY     CLOUDY    28  21  75 E7        30.04F WCI  21
BIG TIMBER     CLOUDY    21  19  93 N6        29.93S FOG     WCI  14
EKALAKA          N/A     18  13  80 E3        29.98
FORSYTH          N/A     27  27 100 E7        30.02F WCI  19
HARLOWTON      FLURRIES  22  20  95 E6        29.92S WCI  14
LAUREL           N/A     25  20  81 N3        29.92F
ROUNDUP          N/A     26  20  78 NE6       29.89F WCI  19
$$

REGIONAL REPORTS...DAKOTAS

CITY           SKY/WX    TMP DP  RH WIND       PRES   REMARKS
WILLISTON      CLOUDY    14  11  87 CALM      30.14F
MINOT          PTCLDY    23  18  81 NW9       30.12S WCI  13
DICKINSON      CLOUDY     7   3  84 SW3       30.07F
BEACH            N/A    N/A N/A N/A MISG        N/A
CROSBY         CLOUDY    25  19  80 N3        30.15S
TIOGA          CLOUDY    19  19 100 CALM      30.12F
WATFORD CITY   MOCLDY     9   9 100 CALM      30.14F
BISMARCK       CLOUDY    15  11  83 W3        30.13F
GRAND FORKS    CLOUDY    17  10  74 N8        30.13F WCI   7
FARGO          PTCLDY    20  12  71 N14       30.09R WCI   7
BUFFALO SD       N/A     15  11  83 E7        29.98S WCI   5
RAPID CITY     LGT SNOW  22  20  92 N15       29.98F FOG     WCI   9
$$

REGIONAL REPORTS...WYOMING/IDAHO/WASHINGTON

CITY           SKY/WX    TMP DP  RH WIND       PRES   REMARKS
GILLETTE       LGT SNOW  23  21  92 E7        29.92F FOG     WCI  15
SHERIDAN       CLOUDY    23  17  78 SE17      29.93F WCI   9
BUFFALO WY     CLOUDY    20  14  77 S3        29.90F
CODY           CLOUDY    14  12  92 SW3       29.88S
YELLOWSTONE LA   N/A      1  -2  87 CALM      29.76S
IDAHO FALLS    CLOUDY    22  21  96 S18       29.85S FOG     WCI   7
SALMON         CLOUDY    27  18  69 E5        29.88S
BOISE          CLOUDY    28  22  78 NW12      30.01S WCI  18
SPOKANE        PTCLDY    21  18  88 S8        30.07R WCI  11
$$

REGIONAL REPORTS...ALBERTA

CITY           SKY/WX    TMP DP  RH WIND       PRES   REMARKS
EDMONTON       CLOUDY    21  19  93 NW2       30.06R
CALGARY        MOCLDY    14   9  79 N5        29.96R
LETHBRIDGE     CLEAR     14  12  92 W6        29.98S WCI   5
MEDICINE HAT   CLOUDY    23  21  93 NE5       30.02F
WATERTON GATE    N/A     14   9  79 S8          N/A  WCI   3
CARDSTON         N/A      9   3  78 SW6         N/A  WCI  -1
MILK RIVER       N/A     18  16  93 W3          N/A
$$

REGIONAL REPORTS...SASKATCHEWAN

CITY           SKY/WX    TMP DP  RH WIND       PRES   REMARKS
SWIFT CURRENT  FLURRIES  21  19  93 S12       30.03F WCI   9
REGINA         PTCLDY    19  18  93 SW7       30.09F WCI  10
SASKATOON      CLOUDY    19  14  79 E5        30.12S
CYPRESS HILLS    N/A     19  16  86 S5          N/A
VAL MARIE        N/A     23  18  80 S8          N/A  WCI  14
ROCKGLEN         N/A     19  16  86 S3          N/A
ASSINIBOIA       N/A     19  18  93 S2          N/A
$$




USA.gov is the U.S. government's official web portal to all federal, state and local government web resources and services.